Regional Weather Roundup
Issued by NWS

Home | Current Version | Previous Version | Text Only | Print | Product List | Glossary Off
Versions: 1 2 3 4 5 6 7 8 9 10 11 12 13 14 15 16 17 18 19 20 21 22 23 24 25 26 27 28 29 30 31 32 33 34 35 36 37 38 39 40 41 42 43 44 45 46 47 48 49 50

000
ASUS45 KTFX 242310
RWRMT
MONTANA REGIONAL WEATHER ROUNDUP
NATIONAL WEATHER SERVICE GREAT FALLS MT
500 PM MDT MON JUL 24 2017

NOTE: "FAIR" INDICATES FEW OR NO CLOUDS BELOW 12000 FEET WITH NO
SIGNIFICANT WEATHER AND/OR OBSTRUCTIONS TO VISIBILITY.

MTZ001>007-043-250000-
WEST OF THE DIVIDE

CITY           SKY/WX    TMP DP  RH WIND       PRES   REMARKS
KALISPELL      SUNNY     90  28  11 W10       29.84F
MISSOULA       SUNNY     93  22   7 W13       29.88S
BUTTE          MOSUNNY   85  33  15 W8        30.01F
MULLAN PASS    SUNNY     74  32  21 VRB5      30.11F
ANACONDA         N/A     88  30  12 W15G23    29.97S
DEER LODGE       N/A     90  34  13 W14G20    29.96S
EUREKA           N/A     84  28  13 MISG      29.87S
HAMILTON         N/A     88  41  19 W10G23    29.90S
LIBBY            N/A     88  30  12 N7G17     29.86S
$$

MTZ008-052>055-250000-
SOUTHWEST MONTANA

CITY           SKY/WX    TMP DP  RH WIND       PRES   REMARKS
BOZEMAN        PTSUNNY   91  36  14 W7        29.92F
DILLON         CLOUDY    80  51  36 W9        29.97F
W YELLOWSTONE  LGT RAIN  63  48  59 VRB6G26   30.25R
ENNIS          SUNNY     88  36  15 NW9G22    30.05S
THREE FORKS      N/A     93  39  15 SW13      29.90F
$$

MTZ009-010-012-014-046-048-049-054-250000-
EAST SLOPES AND CENTRAL MONTANA

CITY           SKY/WX    TMP DP  RH WIND       PRES   REMARKS
CUT BANK       SUNNY     78  36  21 CALM      29.90F
GREAT FALLS    SUNNY     87  44  22 NE12G17   29.86F
HELENA         SUNNY     97  36  12 W15G23    29.85F HX  92
CHOTEAU          N/A     84  41  21 E8        29.90F
CONRAD           N/A     80  46  30 NE5       29.93F
$$

MTZ011-013-016-021-045-047-050-051-250000-
NORTH CENTRAL MONTANA

CITY           SKY/WX    TMP DP  RH WIND       PRES   REMARKS
HAVRE          SUNNY     82  41  23 N8        29.86F
LEWISTOWN      PTSUNNY   85  45  24 E14       29.91F
N BAR RANCH      N/A     82  45  26 E10G17    29.98S
CHINOOK          N/A     82  41  23 NW7       29.85F
$$

MTZ017>020-022>027-061-062-250000-
NORTHEAST MONTANA

CITY           SKY/WX    TMP DP  RH WIND       PRES   REMARKS
GLASGOW        PTSUNNY   84  41  21 NW15      29.84F
JORDAN           N/A     87  45  23 NW7       29.85F
SIDNEY         MOSUNNY   91  51  25 N14       29.79R
WOLF POINT     MOSUNNY   91  43  18 NW9       29.80F
MALTA          SUNNY     82  45  26 SW7       29.84F
PLENTYWOOD       N/A     82  43  24 NW14      29.82F
POPLAR           N/A     88  45  22 NW7       29.81S
$$

MTZ028>42-056>058-250000-
SOUTHCENTRAL AND SOUTHEAST MONTANA

CITY           SKY/WX    TMP DP  RH WIND       PRES   REMARKS
BAKER          SUNNY     97  42  15 NW13      29.82S HX  93
BILLINGS       MOSUNNY   92  44  19 NE10      29.87F
LIVINGSTON     CLOUDY    91  36  14 W16       29.91S
MILES CITY     SUNNY     93  46  19 N13       29.83S
BIG TIMBER     SUNNY     93  32  11 NW14      29.93S
FORSYTH          N/A     91  46  21 N3        29.84S
LAUREL           N/A     93  45  19 NE7       29.87R
$$

REGIONAL REPORTS...DAKOTAS

CITY           SKY/WX    TMP DP  RH WIND       PRES   REMARKS
WILLISTON      MOSUNNY   92  55  28 N16       29.78R HX  90
MINOT            N/A     96  57  27 S14       29.72S HX  95
DICKINSON      SUNNY     97  56  25 S14       29.75F HX  95
BEACH            N/A     93  46  20 N15G22    29.84S
CROSBY           N/A     84  52  32 NW12      29.80R
TIOGA            N/A     86  54  32 N14G21    29.80S
WATFORD CITY     N/A     91  54  27 N14G22    29.75R
BISMARCK       SUNNY     88  66  48 SE23      29.78F HX  90
GRAND FORKS    PTSUNNY   80  65  59 S18G26    29.86F
FARGO            N/A     79  64  60 SE13G22   29.90S
BUFFALO SD       N/A     97  50  20 S8        29.75S HX  94
RAPID CITY     SUNNY     97  47  18 NE10G16   29.83R HX  93
$$

REGIONAL REPORTS...WYOMING/IDAHO/WASHINGTON

CITY           SKY/WX    TMP DP  RH WIND       PRES   REMARKS
GILLETTE       MOSUNNY   98  35  11 NE6       29.89F HX  93
SHERIDAN       MOSUNNY   95  40  14 VRB3      29.89F HX  91
BUFFALO WY     MOSUNNY   92  39  15 NW14      29.97F
CODY           SUNNY     91  41  17 NE8       29.94F
YELLOWSTONE LA   N/A     73  32  22 NW5       30.24S
IDAHO FALLS    MOSUNNY   93  34  12 SW8       29.98F
BOISE          CLOUDY    97  45  16 NW6       29.83F HX  93
SPOKANE        MOSUNNY   85  27  12 VRB3      29.93F
$$

REGIONAL REPORTS...ALBERTA

CITY           SKY/WX    TMP DP  RH WIND       PRES   REMARKS
EDMONTON       LGT RAIN  55  54  94 W15G29    29.89R
CALGARY        MOSUNNY   68  41  37 N21G28    29.97R
LETHBRIDGE     MOSUNNY   75  39  27 NE9       29.90S
MEDICINE HAT   MOSUNNY   75  36  23 W6G18     29.89F
WATERTON GATE    N/A     75  41  29 NE9         N/A
CARDSTON         N/A     79  41  25 NE1         N/A
MILK RIVER       N/A     75  41  29 N6          N/A
$$

REGIONAL REPORTS...SASKATCHEWAN

CITY           SKY/WX    TMP DP  RH WIND       PRES   REMARKS
SWIFT CURRENT  SUNNY     73  36  25 W22G35    29.85F
REGINA         MOSUNNY   77  41  27 W20G28    29.81S
SASKATOON      PTSUNNY   72  45  37 W18G28    29.73F
CYPRESS HILLS    N/A     66  36  32 NW8         N/A
VAL MARIE        N/A     79  37  22 NW9G17      N/A
ROCKGLEN         N/A     77  39  25 W10G21      N/A
ASSINIBOIA       N/A     55  54  94 NW28G37     N/A
$$



USA.gov is the U.S. government's official web portal to all federal, state and local government web resources and services.